TimeEST,TemperatureF,Dew PointF,Humidity,Sea Level PressureIn,VisibilityMPH,Wind Direction,Wind SpeedMPH,Gust SpeedMPH,PrecipitationIn,Events,Conditions,WindDirDegrees,DateUTC
12:00 AM,46.4,-9999,N/A,30.05,0.2,SSW,11.5,16.1,0.07,Rain,Rain,200,2007-01-01 05:00:00
12:20 AM,46.4,-9999,N/A,30.02,0.2,South,16.1,23.0,0.12,Rain,Light Rain,170,2007-01-01 05:20:00
12:40 AM,46.4,-9999,N/A,30.00,0.2,South,20.7,24.2,0.13,Rain,Heavy Rain,180,2007-01-01 05:40:00
1:00 AM,46.4,-9999,N/A,30.02,0.5,South,17.3,25.3,0.07,Rain,Rain,180,2007-01-01 06:00:00
1:20 AM,50.0,-9999,N/A,30.02,5.0,South,19.6,28.8,0.18,Rain,Heavy Rain,190,2007-01-01 06:20:00
2:00 AM,50.0,-9999,N/A,29.99,1.8,South,18.4,23.0,0.04,Rain,Light Rain,180,2007-01-01 07:00:00
2:20 AM,51.8,-9999,N/A,30.00,10.0,SSW,15.0,20.7,0.10,Rain,Light Rain,200,2007-01-01 07:20:00
2:40 AM,51.8,-9999,N/A,30.00,7.0,SW,13.8,20.7,0.12,,Drizzle,230,2007-01-01 07:40:00
3:00 AM,51.8,-9999,N/A,29.99,0.8,SW,16.1,23.0,0.01,,Drizzle,230,2007-01-01 08:00:00
3:20 AM,53.6,-9999,N/A,29.99,7.0,SW,15.0,20.7,0.02,Rain,Rain,230,2007-01-01 08:20:00
3:40 AM,51.8,-9999,N/A,29.97,10.0,WSW,15.0,23.0,0.02,,Light Drizzle,240,2007-01-01 08:40:00
4:20 AM,51.8,-9999,N/A,29.95,10.0,WSW,12.7,-,N/A,,Overcast,240,2007-01-01 09:20:00
4:40 AM,51.8,51.8,100,29.95,10.0,WSW,15.0,-,N/A,,Overcast,250,2007-01-01 09:40:00
5:20 AM,51.8,51.8,100,29.95,10.0,WSW,16.1,-,N/A,,Scattered Clouds,250,2007-01-01 10:20:00
5:40 AM,51.8,51.8,100,29.95,10.0,West,16.1,-,N/A,,Scattered Clouds,260,2007-01-01 10:40:00
6:00 AM,51.8,51.8,100,29.95,10.0,West,15.0,-,N/A,,Scattered Clouds,260,2007-01-01 11:00:00
6:20 AM,50.0,50.0,100,29.95,10.0,West,13.8,-,N/A,,Clear,260,2007-01-01 11:20:00
6:40 AM,50.0,50.0,100,29.95,10.0,WSW,15.0,-,N/A,,Clear,250,2007-01-01 11:40:00
7:00 AM,50.0,50.0,100,29.94,10.0,WSW,12.7,-,N/A,,Scattered Clouds,250,2007-01-01 12:00:00
7:20 AM,50.0,50.0,100,29.95,10.0,WSW,13.8,-,N/A,,Overcast,250,2007-01-01 12:20:00
8:00 AM,48.2,48.2,100,29.95,0.2,West,11.5,-,N/A,Fog,Fog,260,2007-01-01 13:00:00
8:20 AM,48.2,48.2,100,29.94,0.2,West,12.7,-,N/A,Rain,Light Rain,270,2007-01-01 13:20:00
8:40 AM,48.2,48.2,100,29.94,0.2,West,11.5,-,N/A,Rain,Light Rain,280,2007-01-01 13:40:00
9:00 AM,48.2,48.2,100,29.94,0.2,WNW,12.7,-,N/A,,Unknown,290,2007-01-01 14:00:00
9:20 AM,48.2,48.2,100,29.93,0.2,West,10.4,-,N/A,,Unknown,280,2007-01-01 14:20:00
9:40 AM,48.2,48.2,100,29.93,0.2,West,10.4,-,N/A,Rain,Light Rain,260,2007-01-01 14:40:00
10:00 AM,48.2,-9999,N/A,29.92,10.0,West,10.4,-,N/A,,Mostly Cloudy,260,2007-01-01 15:00:00
10:20 AM,48.2,48.2,100,29.93,10.0,WSW,10.4,16.1,N/A,,Scattered Clouds,240,2007-01-01 15:20:00
10:40 AM,48.2,48.2,100,29.92,10.0,WSW,13.8,19.6,N/A,,Clear,250,2007-01-01 15:40:00
11:00 AM,48.2,48.2,100,29.91,10.0,West,13.8,19.6,N/A,,Clear,260,2007-01-01 16:00:00
11:20 AM,50.0,50.0,100,29.89,10.0,West,13.8,-,N/A,,Clear,260,2007-01-01 16:20:00
12:20 PM,51.8,50.0,94,29.87,10.0,West,15.0,20.7,N/A,,Clear,260,2007-01-01 17:20:00
12:40 PM,51.8,51.8,100,29.87,10.0,West,19.6,23.0,N/A,,Clear,260,2007-01-01 17:40:00
1:00 PM,51.8,51.8,100,29.86,10.0,WSW,15.0,21.9,N/A,,Scattered Clouds,250,2007-01-01 18:00:00
1:20 PM,51.8,48.2,88,29.85,10.0,West,17.3,25.3,N/A,,Scattered Clouds,260,2007-01-01 18:20:00
1:40 PM,51.8,48.2,88,29.84,10.0,West,20.7,33.4,N/A,,Clear,270,2007-01-01 18:40:00
2:20 PM,51.8,48.2,88,29.84,10.0,West,11.5,17.3,N/A,,Mostly Cloudy,260,2007-01-01 19:20:00
2:40 PM,48.2,46.4,93,29.84,10.0,West,13.8,20.7,N/A,,Overcast,260,2007-01-01 19:40:00
3:00 PM,48.2,46.4,93,29.84,10.0,West,17.3,24.2,N/A,,Mostly Cloudy,260,2007-01-01 20:00:00
3:20 PM,51.8,44.6,76,29.84,10.0,West,16.1,25.3,N/A,,Mostly Cloudy,270,2007-01-01 20:20:00
3:40 PM,48.2,44.6,87,29.83,10.0,West,20.7,28.8,N/A,,Overcast,280,2007-01-01 20:40:00
4:00 PM,48.2,42.8,82,29.84,10.0,West,18.4,28.8,N/A,,Mostly Cloudy,270,2007-01-01 21:00:00
4:20 PM,48.2,44.6,87,29.85,10.0,WNW,15.0,26.5,N/A,,Overcast,290,2007-01-01 21:20:00
4:40 PM,46.4,44.6,93,29.86,10.0,West,15.0,21.9,N/A,,Overcast,280,2007-01-01 21:40:00
5:00 PM,44.6,42.8,93,29.87,10.0,West,16.1,28.8,N/A,,Overcast,280,2007-01-01 22:00:00
5:20 PM,44.6,42.8,93,29.86,10.0,West,18.4,26.5,N/A,,Overcast,280,2007-01-01 22:20:00
6:00 PM,42.8,41.0,93,29.88,10.0,West,25.3,31.1,N/A,,Overcast,280,2007-01-01 23:00:00
6:20 PM,39.2,39.2,100,29.88,10.0,West,21.9,31.1,N/A,,Overcast,280,2007-01-01 23:20:00
7:00 PM,37.4,37.4,100,29.89,10.0,WNW,19.6,28.8,N/A,,Overcast,290,2007-01-02 00:00:00
7:20 PM,37.4,37.4,100,29.90,10.0,WNW,24.2,34.5,N/A,,Mostly Cloudy,290,2007-01-02 00:20:00
7:40 PM,37.4,37.4,100,29.91,10.0,WNW,17.3,33.4,N/A,,Overcast,290,2007-01-02 00:40:00
8:00 PM,35.6,35.6,100,29.90,10.0,WNW,25.3,32.2,N/A,,Overcast,290,2007-01-02 01:00:00
8:20 PM,35.6,35.6,100,29.93,10.0,WNW,27.6,39.1,N/A,,Overcast,290,2007-01-02 01:20:00
8:40 PM,35.6,35.6,100,29.94,10.0,West,25.3,40.3,N/A,,Overcast,270,2007-01-02 01:40:00
9:00 PM,33.8,33.8,100,29.95,5.0,WNW,20.7,35.7,N/A,,Overcast,300,2007-01-02 02:00:00
9:20 PM,33.8,33.8,100,29.95,10.0,West,32.2,44.9,N/A,,Overcast,280,2007-01-02 02:20:00
9:40 PM,33.8,33.8,100,29.95,10.0,WNW,24.2,39.1,N/A,,Overcast,290,2007-01-02 02:40:00
10:00 PM,33.8,33.8,100,29.96,10.0,WNW,27.6,38.0,N/A,,Overcast,290,2007-01-02 03:00:00
10:20 PM,33.8,33.8,100,29.97,10.0,WNW,27.6,41.4,N/A,,Overcast,300,2007-01-02 03:20:00
10:40 PM,32.0,32.0,100,29.98,10.0,WNW,18.4,29.9,N/A,,Overcast,300,2007-01-02 03:40:00
11:00 PM,32.0,32.0,100,29.99,10.0,WNW,24.2,33.4,N/A,,Overcast,300,2007-01-02 04:00:00
11:20 PM,30.2,30.2,100,30.00,10.0,WNW,16.1,33.4,N/A,,Overcast,300,2007-01-02 04:20:00
11:40 PM,30.2,30.2,100,30.01,4.0,WNW,19.6,27.6,N/A,,Overcast,290,2007-01-02 04:40:00